ARIANE 2 DEB

基本信息
目录编号:
42483
目录名称:
ARIANE 2 DEB
国际标识:
1989-006CK
轨道中心:
EARTH
物体状态:
在轨
发射日期:
1989-01-27 UTC
轨道信息
数据来源: 国际轨道数据
星历时间: 2025-02-27T05:30:00+0800
半长轴: 24761.787km
偏心率: 0.6990544
轨道倾角: 9.010°
近地点辐角: 225.985°
升交点赤经: 10.829°
平近点角: 49.749°
近地点: 1073.815km
远地点: 35693.489km
周期: 646.298分钟
每日圈数: 2.228075
详细信息
发射场:
FRGUI
轨道高度:
LEO
数据来源:
AOE Integration Group
参考系:
TEME
时间系统:
UTC
历元类型:
SGP4
2D轨道图
3D轨道图
轨道高度分析图
轨道倾角分析图
轨道综合分析图
查看轨道综合分析图